Погода в Ижевске

Погода в Ижевске : погода сейчас, прогноз погоды и архив. Всё, что Вы хотите узнать о погоде в Ижевске!

Хотите узнать прогноз погоды в Ижевске? Тогда Вам сюда: Погода в Ижевске

Поиск расширенной информации на нашем сайте:

Полезная информация:

Другие новости

Новости СМИ2

Главная страница сайта

Новости сайта

03.07.2017

Напоминаем, что на нашем специализированном сайте Метеоцентр.Азия вы можете получить высокодетализированные автоматические прогнозы погоды по пунктам России, СНГ и мира в авиационном формате (включающие направление и скорость ветра, видимость, явления погоды, количество и форму облачности, нижнюю и верхнюю границу облачности).

Рекомендуем:

Погода в Ижевске - сегодня

Время (UTC), дата Ветер
(°,м/с) 
Видим.   Явления Облачность Т
(°С)
Тd
(°С)
f(%) Тe
(°С)
Pmin
(гПа)
dP
(гПа)
Po
(мм)
O2
(г/м3)
Тmin Tmax R s Состояние
почвы
21 18.05.19 300 (СЗ) 1-2{05}  10 км  {ливн. осадки}  6/0 средняя 
[Ac trans]
+2 -1.1 80 +3  1006.8  -1.5  740  296           
00 19.05.19 260 (З) 1-2{03}  10 км    10/10 600 м 
[Sc]
+1.3 -0.7 86 +2  1007.1  0.2  740  297           
03 19.05.19 270 (З) 3-5{08}  10 км  в посл. час снег  10/10 300 м 
[Sc]
+1.2 -0.5 88 1007.2  0.1  740  297  +0.6      влажная 
06 19.05.19 290 (З) 3-5{07}  10 км  {ливн. осадки, снег}  9/9 600 м кучево-дожд. 
[Cb cap]
+4.8 +0.4 73 +4  1006.8  -0.1  740  293  +0.3         
09 19.05.19 330 (СЗ) 5-8{11}  4000 м  слаб. ливневой дождь  10/10 600 м кучево-дожд. 
[Cb cap]
+4.2 +1.7 84 +2  1007.1  0.2  741  294           
12 19.05.19 350 (С) 4-8{13}  10 км  в посл. час ливневой дождь  10/8 600 м кучево-дожд., верхняя 
[Cb cap|Ci fib]
+2.8 +1.5 91 +1  1008.2  741  295           
15 19.05.19 320 (СЗ) 8-12{13}  10 км  в посл. час ливневой дождь  9/6 600 м кучево-дожд., средняя, верхняя 
[Cb cap|Ac trans|Ci fib]
+6.3 +1.6 72 +3  1008.8  0.8  742  292    +7.1     
18 19.05.19 330 (СЗ) 4-6{12}  10 км  {ливн. осадки}  6/6 1000 м 
[Sc]
+3.6 +2.3 91 +2  1010.7  1.7  743  295           
21 19.05.19 320 (СЗ) 4-6{07}  10 км    8/0 средняя 
[Ac trans]
+3.2 +1.7 90 +1  1011.5  0.8  744  296           
00 20.05.19 310 (СЗ) 3-5{06}  10 км    10/10 600 м 
[Sc]
+2.3 +1 91 +1  1012.1  0.5  744  297           
03 20.05.19 330 (СЗ) 3-4{06}  10 км    10/10 600 м 
[Sc]
+3.4 +1.3 86 +2  1012.5  0.4  744  296  +2.1        влажная 
06 20.05.19 320 (СЗ) 4-6{08}  10 км    10/10 600 м 
[Sc]
+4.8 +1.8 81 +3  1012.6  0.2  745  295           
09 20.05.19 300 (СЗ) 5-8{10}  10 км  в посл. час ливневой дождь  9/8 600 м кучево-дожд., верхняя 
[Cb cap|Ci fib]
+7.5 +1.7 67 +6  1012.6  0.2  745  292           
12 20.05.19 290 (З) 5-8{09}  10 км  {ливн. осадки}  8/4 600 м кучево-дожд., средняя, верхняя 
[Cb cap|Ac trans|Ci fib]
+10 +1.3 55 +9  1012.9  0.4  745  289           
15 20.05.19 300 (СЗ) 5-8{09}  10 км    8/3 1000 м кучево-дожд., средняя, верхняя 
[Cb cap|Ac trans|Ci sp]
+10.9 +2.3 55 +10  1012.6  -0.2  745  288    +11.7  0.0     
18 20.05.19 340 (С) 3-5{08}  10 км    3/0 средняя 
[Ac trans]
+6 -1.6 58 +5  1013.9  746  294           
21 20.05.19 310 (СЗ) 2-3{05}  10 км    3/0 средняя 
[Ac trans]
+3.4 -2 68 +3  1014.7  0.6  746  297           
00 21.05.19 тихо () -2{03}  10 км    1/0 средняя 
[Ac trans]
+2.1 -1.9 75 +2  1015.3  0.5  746  299           
03 21.05.19 320 (СЗ) 2-4{05}  10 км    1/0 средняя 
[Ac trans]
+4.4 -0.7 69 +4  1015.7  0.6  747  296  +0.5        влажная 
06 21.05.19 310 (СЗ) 7-8{09}  10 км    3/3 1500 м 
[Cu hum]
+10.6 -6.4 30 +9  1015.4  0.1  747  290           
09 21.05.19 330 (СЗ) 6-8{10}  10 км    3/3 1500 м 
[Cu hum]
+12.8 -5 29 +12  1015.5  0.2  747  288           
12 21.05.19 310 (СЗ) 5-6{09}  10 км    6/6 1500 м 
[Cu hum]
+14.4 -5 26 +14  1014.5  -0.9  746  286           
15 21.05.19 330 (СЗ) 5-7{09}  10 км    6/6 1000 м 
[Sc]
+13.4 -4.7 28 +13  1014.7  0.2  747  287    +15.2       
18 21.05.19 290 (З) 2-3{07}  10 км    6/6 1000 м 
[Sc]
+8.4 -3 44 +8  1015.6  0.5  747  292           
21 21.05.19 тихо () -2{03}  10 км    3/0 средняя 
[Ac trans]
+6.2 -0.6 62 +6  1015.9  0.2  747  294           
Время (UTC), дата Ветер
(°,м/с) 
Видим.   Явления Облачность Т
(°С)
Тd
(°С)
f(%) Тe
(°С)
Pmin
(гПа)
dP
(гПа)
Po
(мм)
O2
(г/м3)
Тmin Tmax R s Состояние
почвы

Для получения пояснительной информации подведите курсор к названию столбца.

ПОГОДА в Ижевске - архив

Всё, что Вы хотите узнать о погоде в Ижевске - удобно и подробно!

Выберите нужную дату (начиная с 1 января 2018* года) и нажмите кнопку "Найти".
Будут отображены архивные сводки погоды по пункту Ижевск, начиная с указанной даты.


Отображать данные в формате CSV (для использования в таблицах Excel)


Внимание! Наш архив погоды предназначен исключительно для личного некоммерческого использования в познавательных целях. Если Вам необходимы официальные справки о состоянии погоды (для производственных, юридических, коммерческих и т.п. целей), обращайтесь в органы Росгидромета.

*Примечание: данная дата относится к архиву по метеостанциям СССР (Россия, СНГ, Балтия).
Архив по метеостанциям Зарубежной Европы и Азии (кроме Китая) хранится 10 дней, по другим регионам земного шара (Китай, Африка, Америка, Австралия, Океания) - 1 день.

Ижевск - район местоположения метеостанции


Название, широта, долгота, высота метеостанции:
Ижевск 56.8°ш. 53.4°д. 159 м над ур. моря [Российская Федерация]

Дополнительная информация

В oтличие oт бoльшинства пoгoдных сайтoв мы публикуем пoдрoбную метеoинфoрмацию в детальнoм прoфессиoнальнoм фoрмате.

Характеристики температуры и влажнoсти вoздуха измеряются на высoте 2 м в тени вдали oт зданий и деревьев.
Скoрoсть ветра измеряется на высoте 10 м (на урoвне рoста челoвека скoрoсть ветра ниже в 1.5-2 раза). Если метеoстанция нахoдится в гoрoде или в лесу, тo скoрoсть ветра занижена на 2-4 м/с пo сравнению с oткрытым местoм. Скoрoсть ветра над акватoриями крупных рек и oзёр, а также на вершинах хoлмoв на 2-5 м/с выше, чем в oбычных услoвиях.
Атмoсфернoе давление в разных тoчках местнoсти мoжет значительнo oтличаться oт давления на метеoстанции, в зависимoсти oт услoвий рельефа (при пoдъёме на 10 м давление пoнижается примернo на 1 мм рт.ст.).